Location: Campo Claro
(10.4907°N, 66.8285°W)
Time: 05:58:23
(UTC+00:00)

BREEZE-M DEB (TANK) - Pass Details

Date: 03 July 2022
Orbit: 341 x 14877 km, 49.6° (Epoch: 11 August)

Event Time Altitude Azimuth Distance (km) Brightness Sun altitude
Rises 21:42:08 0° 319° (NW) 16,354 11.9 15.3°
Reaches altitude 10° 21:59:05 10° 321° (NW) 17,073 12.1 11.5°
Maximum altitude 00:14:25 70° 249° (WSW) 8,637 9.3 -18.8°
Enters shadow 00:42:50 12° 163° (SSE) 6,056 8.1 -24.8°
